Location: Sobotiste
(48.7170°N, 17.4000°E)
Time: 08:22:02
(UTC+01:00)

Envisat - Visible Passes

Search period start: 16 December 2017 00:00
Search period end: 26 December 2017 00:00
Orbit: 764 x 766 km, 98.2° (Epoch: 15 December)

Date Brightness Start Highest point End Pass type
(mag) Time Alt. Az. Time Alt. Az. Time Alt. Az.
16 Dec 6.4 06:45:39 10° E 06:46:05 10° E 06:46:32 10° E visible
18 Dec 5.4 18:35:44 10° N 18:35:44 10° N 18:35:45 10° N visible
20 Dec 5.5 19:01:34 10° N 19:01:34 10° N 19:01:36 10° N visible
21 Dec 5.9 06:58:08 10° NE 07:00:48 14° E 07:03:28 10° ESE visible
21 Dec 5.3 18:24:24 10° N 18:24:24 10° N 18:24:29 10° N visible
23 Dec 5.4 18:50:11 11° N 18:50:11 11° N 18:50:24 10° N visible
24 Dec 6.1 06:48:00 10° ENE 06:49:31 11° E 06:51:02 10° ESE visible
24 Dec 5.2 18:12:58 11° N 18:12:58 11° N 18:13:10 10° N visible
25 Dec 5.5 19:15:58 11° N 19:15:58 11° N 19:16:10 10° N visible
